| time (UTC) | temp C | wind direction | speed KPH | gust KPH | rain 1hr cm | rain 24hr cm | rain mn cm | humidity % | barometer mb |
| 20260903101138 | 20 | 270 | 12.9 | 27.4 | 0.00 | 0.00 | 0.00 | 45 | 1015.9 |
| 20260903095638 | 20 | 222 | 14.5 | 27.4 | 0.00 | 0.00 | 0.00 | 47 | 1016.4 |
| 20260903094141 | 20 | 222 | 14.5 | 27.4 | 0.00 | 0.00 | 0.00 | 46 | 1016.4 |
| 20260903094137 | 20 | 222 | 14.5 | 27.4 | 0.00 | 0.00 | 0.00 | 46 | 1016.4 |
| 20260903092638 | 19 | 270 | 12.9 | 29.0 | 0.00 | 0.00 | 0.00 | 48 | 1016.5 |
| 20260903091137 | 19 | 222 | 24.1 | 29.0 | 0.00 | 0.00 | 0.00 | 49 | 1016.5 |
| 20260903085637 | 19 | 270 | 12.9 | 29.0 | 0.00 | 0.00 | 0.00 | 51 | 1016.5 |
| 20260903084138 | 19 | 222 | 12.9 | 25.7 | 0.00 | 0.00 | 0.00 | 52 | 1016.4 |
| 20260903082638 | 18 | 222 | 19.3 | 30.6 | 0.00 | 0.00 | 0.00 | 51 | 1017.1 |
| 20260903081138 | 18 | 222 | 19.3 | 29.0 | 0.00 | 0.00 | 0.00 | 54 | 1016.8 |
| 20260903075637 | 17 | 222 | 16.1 | 30.6 | 0.00 | 0.00 | 0.00 | 60 | 1017.3 |
| 20260903074138 | 17 | 270 | 17.7 | 30.6 | 0.00 | 0.00 | 0.00 | 61 | 1017.3 |
| 20260903072637 | 17 | 222 | 19.3 | 30.6 | 0.00 | 0.00 | 0.00 | 62 | 1017.4 |
| 20260903071137 | 16 | 270 | 12.9 | 24.1 | 0.00 | 0.00 | 0.00 | 64 | 1017.5 |
| 20260903065638 | 16 | 222 | 9.7 | 19.3 | 0.00 | 0.00 | 0.00 | ||
| 20260903064138 | 15 | 222 | 8.0 | 16.1 | 0.00 | 0.00 | 0.00 | 74 | 1017.8 |
| 20260903062638 | 15 | 222 | 6.4 | 14.5 | 0.00 | 0.00 | 0.00 | 76 | 1017.8 |
| 20260903061138 | 15 | 222 | 6.4 | 12.9 | 0.00 | 0.00 | 0.00 | 76 | 1017.7 |
| 20260903055637 | 15 | 222 | 8.0 | 17.7 | 0.00 | 0.00 | 0.00 | 74 | 1017.7 |
| 20260903054139 | 15 | 222 | 9.7 | 16.1 | 0.00 | 0.00 | 0.00 | 76 | 1017.5 |
| 20260903054137 | 15 | 222 | 9.7 | 16.1 | 0.00 | 0.00 | 0.00 | 76 | 1017.5 |
| 20260903052637 | 15 | 222 | 9.7 | 27.4 | 0.00 | 0.00 | 0.00 | 76 | 1017.6 |
| 20260903051137 | 15 | 222 | 6.4 | 22.5 | 0.00 | 0.00 | 0.00 | 78 | 1017.4 |
| 20260903045638 | 15 | 222 | 9.7 | 19.3 | 0.00 | 0.00 | 0.00 | 78 | 1017.5 |
| 20260903044137 | 15 | 222 | 12.9 | 25.7 | 0.00 | 0.00 | 0.00 | 78 | 1017.3 |
| 20260903042637 | 15 | 222 | 11.3 | 27.4 | 0.00 | 0.00 | 0.00 | 78 | 1017.4 |
| 20260903041137 | 15 | 270 | 11.3 | 22.5 | 0.00 | 0.00 | 0.00 | 78 | 1017.3 |
| 20260903035638 | 15 | 222 | 11.3 | 27.4 | 0.00 | 0.00 | 0.00 | 76 | 1017.2 |
| 20260903034137 | 15 | 270 | 17.7 | 29.0 | 0.00 | 0.00 | 0.00 | 76 | 1017.1 |
| 20260903032638 | 15 | 222 | 12.9 | 20.9 | 0.00 | 0.00 | 0.00 | 74 | 1017.0 |
| 20260903031137 | 16 | 222 | 11.3 | 16.1 | 0.00 | 0.00 | 0.00 | 72 | 1017.0 |
| 20260903025638 | 16 | 222 | 6.4 | 14.5 | 0.00 | 0.00 | 0.00 | 72 | 1017.0 |
| 20260903024138 | 16 | 222 | 3.2 | 9.7 | 0.00 | 0.00 | 0.00 | 72 | 1016.9 |
| 20260903022637 | 16 | 222 | 4.8 | 9.7 | 0.00 | 0.00 | 0.00 | 73 | 1017.0 |
| 20260903021137 | 16 | 180 | 6.4 | 12.9 | 0.00 | 0.00 | 0.00 | 74 | 1016.9 |
| 20260903015637 | 16 | 180 | 8.0 | 12.9 | 0.00 | 0.00 | 0.00 | 74 | 1016.9 |
| 20260903014137 | 16 | 222 | 8.0 | 24.1 | 0.00 | 0.00 | 0.00 | 74 | 1016.9 |
| 20260903012637 | 16 | 222 | 8.0 | 11.3 | 0.00 | 0.00 | 0.00 | 74 | 1016.9 |
| 20260903011138 | 16 | 222 | 6.4 | 24.1 | 0.00 | 0.00 | 0.00 | 73 | 1016.9 |
| 20260903005638 | 16 | 222 | 4.8 | 12.9 | 0.00 | 0.00 | 0.00 | 73 | 1016.9 |
| 20260903004137 | 16 | 222 | 6.4 | 24.1 | 0.00 | 0.00 | 0.00 | 73 | 1017.0 |
| 20260903002639 | 16 | 222 | 9.7 | 25.7 | 0.00 | 0.00 | 0.00 | 73 | 1016.9 |
| 20260903002637 | 16 | 222 | 9.7 | 25.7 | 0.00 | 0.00 | 0.00 | 73 | 1016.9 |
| 20260903001137 | 16 | 222 | 9.7 | 12.9 | 0.00 | 0.00 | 0.00 | 73 | 1016.9 |
| 20260902235637 | 16 | 222 | 8.0 | 16.1 | 0.00 | 0.00 | 0.00 | 73 | 1016.9 |
| 20260902234137 | 16 | 222 | 6.4 | 9.7 | 0.00 | 0.00 | 0.00 | 73 | 1017.0 |
| 20260902232638 | 17 | 222 | 8.0 | 11.3 | 0.00 | 0.00 | 0.00 | 72 | 1016.9 |
| 20260902231137 | 17 | 222 | 4.8 | 8.0 | 0.00 | 0.00 | 0.00 | 70 | 1016.7 |
| 20260902225637 | 17 | 222 | 6.4 | 27.4 | 0.00 | 0.00 | 0.00 | 68 | 1016.7 |
| 20260902224137 | 17 | 222 | 6.4 | 27.4 | 0.00 | 0.00 | 0.00 | 66 | 1016.8 |
| 20260902222637 | 17 | 222 | 9.7 | 25.7 | 0.00 | 0.00 | 0.00 | 64 | 1016.9 |
| 20260902221137 | 17 | 222 | 4.8 | 25.7 | 0.00 | 0.00 | 0.00 | 62 | 1016.9 |
| 20260902215637 | 18 | 270 | 4.8 | 16.1 | 0.00 | 0.00 | 0.00 | 60 | 1016.8 |
| 20260902214137 | 18 | 222 | 3.2 | 16.1 | 0.00 | 0.00 | 0.00 | 58 | 1016.8 |
| 20260902212638 | 18 | 270 | 4.8 | 17.7 | 0.00 | 0.00 | 0.00 | 60 | 1016.7 |
| 20260902211138 | 17 | 270 | 0.0 | 6.4 | 0.00 | 0.00 | 0.00 | 63 | 1016.6 |
| 20260902205638 | 18 | 270 | 0.0 | 3.2 | 0.00 | 0.00 | 0.00 | 60 | 1016.5 |
| 20260902204138 | 18 | 270 | 3.2 | 24.1 | 0.00 | 0.00 | 0.00 | 56 | 1016.3 |
| 20260902202637 | 19 | 270 | 4.8 | 12.9 | 0.00 | 0.00 | 0.00 | 54 | 1016.1 |
| 20260902201138 | 19 | 222 | 1.6 | 3.2 | 0.00 | 0.00 | 0.00 | 54 | 1016.1 |
| 20260902195638 | 18 | 0 | 1.6 | 4.8 | 0.00 | 0.00 | 0.00 | 58 | 1016.2 |
| 20260902194137 | 18 | 315 | 0.0 | 1.6 | 0.00 | 0.00 | 0.00 | 58 | 1016.3 |
| 20260902192638 | 17 | 0 | 4.8 | 12.9 | 0.00 | 0.00 | 0.00 | 65 | 1016.3 |
| 20260902191138 | 18 | 180 | 3.2 | 12.9 | 0.00 | 0.00 | 0.00 | 66 | 1016.2 |
| 20260902185638 | 19 | 222 | 11.3 | 25.7 | 0.00 | 0.00 | 0.00 | 58 | 1015.6 |
| 20260902184137 | 20 | 222 | 6.4 | 24.1 | 0.00 | 0.00 | 0.00 | 50 | 1015.6 |
| 20260902182637 | 20 | 222 | 8.0 | 22.5 | 0.00 | 0.00 | 0.00 | 50 | 1015.4 |
| 20260902181137 | 20 | 222 | 9.7 | 16.1 | 0.00 | 0.00 | 0.00 | 50 | 1015.4 |
| 20260902175639 | 368 | 270 | 8.0 | 0.0 | 0.00 | 0.00 | 0.00 | 49 | 1015.1 |
| 20260902175637 | 20 | 270 | 8.0 | 12.9 | 0.00 | 0.00 | 0.00 | 49 | 1015.1 |
| 20260902174137 | 20 | 222 | 9.7 | 14.5 | 0.00 | 0.00 | 0.00 | 49 | 1015.2 |
| 20260902172637 | 21 | 222 | 8.0 | 17.7 | 0.00 | 0.00 | 0.00 | 48 | 1015.0 |
| 20260902171137 | 21 | 222 | 9.7 | 29.0 | 0.00 | 0.00 | 0.00 | 47 | 1014.8 |
| 20260902165637 | 21 | 222 | 9.7 | 17.7 | 0.00 | 0.00 | 0.00 | 46 | 1014.9 |
| 20260902164137 | 21 | 270 | 9.7 | 17.7 | 0.00 | 0.00 | 0.00 | 46 | 1014.7 |
| 20260902162637 | 22 | 222 | 11.3 | 29.0 | 0.00 | 0.00 | 0.00 | 45 | 1014.8 |
| 20260902161137 | 21 | 270 | 6.4 | 22.5 | 0.00 | 0.00 | 0.00 | 45 | 1014.9 |
| 20260902155638 | 21 | 222 | 9.7 | 17.7 | 0.00 | 0.00 | 0.00 | 44 | 1014.7 |
| 20260902154137 | 22 | 180 | 8.0 | 17.7 | 0.00 | 0.00 | 0.00 | 43 | 1014.6 |
| 20260902152637 | 22 | 222 | 9.7 | 24.1 | 0.00 | 0.00 | 0.00 | 43 | 1014.6 |
| 20260902151137 | 23 | 270 | 9.7 | 24.1 | 0.00 | 0.00 | 0.00 | 39 | 1014.1 |
| 20260902145637 | 23 | 180 | 6.4 | 19.3 | 0.00 | 0.00 | 0.00 | 39 | 1014.2 |
| 20260902144137 | 23 | 270 | 12.9 | 29.0 | 0.00 | 0.00 | 0.00 | 37 | 1014.1 |
| 20260902142637 | 25 | 270 | 6.4 | 12.9 | 0.00 | 0.00 | 0.00 | 35 | 1013.9 |
| 20260902141138 | 25 | 222 | 4.8 | 11.3 | 0.00 | 0.00 | 0.00 | 35 | 1014.1 |
| 20260902135637 | 24 | 270 | 8.0 | 27.4 | 0.00 | 0.00 | 0.00 | 38 | 1014.2 |
| 20260902134137 | 23 | 222 | 8.0 | 19.3 | 0.00 | 0.00 | 0.00 | 38 | 1014.6 |
| 20260902132637 | 23 | 270 | 11.3 | 27.4 | 0.00 | 0.00 | 0.00 | 39 | 1014.7 |
| 20260902131137 | 23 | 222 | 6.4 | 24.1 | 0.00 | 0.00 | 0.00 | 40 | 1014.9 |
| 20260902125638 | 23 | 222 | 8.0 | 16.1 | 0.00 | 0.00 | 0.00 | 39 | 1015.2 |
| 20260902124137 | 22 | 180 | 8.0 | 24.1 | 0.00 | 0.00 | 0.00 | 44 | 1015.7 |
| 20260902122637 | 21 | 222 | 8.0 | 25.7 | 0.00 | 0.00 | 0.00 | 45 | 1015.8 |
| 20260902121141 | 21 | 180 | 8.0 | 20.9 | 0.00 | 0.00 | 0.00 | 45 | 1016.0 |
| 20260902121137 | 21 | 180 | 8.0 | 20.9 | 0.00 | 0.00 | 0.00 | 45 | 1016.0 |
| 20260902115638 | 21 | 222 | 9.7 | 20.9 | 0.00 | 0.00 | 0.05 | 43 | |
| 20260902115636 | 21 | 222 | 9.7 | 20.9 | 0.00 | 0.00 | 0.00 | 43 | 1016.0 |
| 20260902114137 | 22 | 270 | 9.7 | 24.1 | 0.00 | 0.00 | 0.00 | 43 | 1015.7 |
| 20260902112637 | 22 | 270 | 6.4 | 24.1 | 0.00 | 0.00 | 0.00 | 43 | 1015.4 |
| 20260902111138 | 22 | 222 | 6.4 | 20.9 | 0.00 | 0.00 | 0.00 | 42 | 1015.7 |
| 20260902105637 | 23 | 270 | 6.4 | 22.5 | 0.00 | 0.00 | 0.00 | 43 | 1015.9 |
| 20260902104138 | 22 | 222 | 4.8 | 12.9 | 0.00 | 0.00 | 0.00 | 44 | 1016.3 |
| 20260902104136 | 22 | 222 | 4.8 | 12.9 | 0.00 | 0.00 | 0.00 | 44 | 1016.3 |
| 20260902102637 | 21 | 270 | 8.0 | 22.5 | 0.00 | 0.00 | 0.00 | 46 | 1016.2 |